BREEZE-M R/B, 37844

Orbit data source: Space-Track

BREEZE-M R/B, 37844 is space debris in HEO originally from a launch on Wed, 19 Oct 2011 UTC launched from the Tyuratam Missile And Space Complex (TTMTR). Debris objects in space refer to the collection of defunct objects orbiting the Earth. Examples of debris include non-operational satellites, rocket bodies, and fragments generated from explosions, collisions, or faulty payload assembly.

Loading next visibility...
Identifier
37844, 2011-059B
Orbit
HEO
Country
Flag of CISCIS
Related business
Manufacturer
Khrunichev
Mission
Spacecraft
Bus & Motor
BRIZ, Unknown motor
Mass
~1,600 kg wet, 1,600 kg dry
Launch date (UTC)
2011-10-19 (14 years ago)
Launch vehicle
Unknown
Launch site
Tyuratam Missile And Space Complex (TTMTR)
Object type
Payload
Rocket body
Debris
Shape & HBR
Cyl, 2.0 m
Radar Cross Section
15.135 m², Large (>1 m²)

Expand to show TLE details & history
Last TLE update: 4 days ago

TLE from 4 days ago
0 BREEZE-M R/B
1 37844U 11059B   25351.32156512 -.00000062  00000-0  00000-0 0  9992
2 37844  30.4379  87.4882 6615211 256.6221  27.7146  2.27325508117557
Epoch: 2025-12-17T07:43Z
TLE epoch observation values (Epoch: 2025-12-17T07:43:03.226Z)
Latitude
0.7313°
Longitude
-113.27915°
Altitude
10,201.438 km
Speed
5.636 km/s
True Right ascension
05h 54m 42s
True Declination
0° 43' 46"
Sunlit
Object was in partial shadow at epoch
Visualization orbit readout
Latitude
Unknown
Longitude
Unknown
Altitude
Unknown
Speed
Unknown
Apparent Right ascension
Unknown
Apparent Declination
Unknown
Sunlit
N/A
Visualization observer readout
Local Sidereal Time
13:57:02
Azimuth
Unknown
Elevation
Unknown
Doppler factor
Unknown
Orbital elements
Apogee altitude
34,221.54 km
Perigee altitude
1,892.678 km
Semi-major axis
24,435.246 km
Eccentricity
0.66152
Inclination
30.4379°
RAAN
87.4882°
Arg. of periapsis
256.6221°
True anomaly
104.85804°
Mean anomaly
27.7146°
Eccentric anomaly
60.80061°
Mean motion
0.56822 °/min
Orbital period
633.56 mins
BSTAR
0
Loading maneuver chart data...
Computing Atmospheric mass density...
Loading historical data...
Loading historical data...
Loading historical data...
Loading historical data...
Loading historical data...
Loading historical data...
Loading historical data...
Other satellites on launch #59 in the year 2011 (2011-10-19 UTC)

Documentation

Showing up to 5 results
|